This is the latest recevied weather packets stored in our database for station/object KC3ULW-13. If no packets are shown the sender has not sent any weather packets the latest 10 day(s).
| Time | Temp. | Humidity | Pressure | Rain* | Wind** | Luminosity | Snow |
|---|---|---|---|---|---|---|---|
| 1777330762 | 22.22° C | 38% | 1019.7 hPa | 0 mm | - | 58 W/m² | - |
| 1777330460 | 22.22° C | 38% | 1019.9 hPa | 0 mm | - | 67 W/m² | - |
| 1777330157 | 22.78° C | 38% | 1019.8 hPa | 0 mm | - | 74 W/m² | - |
| 1777329855 | 22.78° C | 39% | 1019.9 hPa | 0 mm | - | 81 W/m² | - |
| 1777329554 | 22.78° C | 37% | 1020.1 hPa | 0 mm | - | 88 W/m² | - |
| 1777329251 | 22.78° C | 37% | 1020.2 hPa | 0 mm | - | 95 W/m² | - |
| 1777328948 | 23.33° C | 36% | 1020.2 hPa | 0 mm | - | 98 W/m² | - |
| 1777328646 | 23.33° C | 36% | 1020.2 hPa | 0 mm | - | 100 W/m² | - |
| 1777328343 | 23.33° C | 35% | 1020.5 hPa | 0 mm | - | 103 W/m² | - |
| 1777328042 | 23.33° C | 35% | 1020.4 hPa | 0 mm | - | 110 W/m² | - |
| 1777327740 | 23.33° C | 36% | 1020.4 hPa | 0 mm | - | 126 W/m² | - |
| 1777327437 | 23.89° C | 35% | 1020.4 hPa | 0 mm | - | 149 W/m² | - |
| 1777327134 | 23.89° C | 34% | 1020.7 hPa | 0 mm | - | 167 W/m² | - |
| 1777326831 | 23.89° C | 34% | 1020.2 hPa | 0 mm | - | 151 W/m² | - |
| 1777326528 | 23.89° C | 34% | 1020.5 hPa | 0 mm | - | 161 W/m² | - |
| 1777326225 | 23.89° C | 33% | 1020.4 hPa | 0 mm | - | 167 W/m² | - |
| 1777325923 | 23.89° C | 34% | 1020.1 hPa | 0 mm | - | 184 W/m² | - |
| 1777325621 | 23.89° C | 33% | 1020.2 hPa | 0 mm | - | 196 W/m² | - |
| 1777325319 | 23.89° C | 33% | 1019.9 hPa | 0 mm | - | 214 W/m² | - |
| 1777325017 | 23.89° C | 32% | 1019.7 hPa | 0 mm | - | 229 W/m² | - |
| 1777324713 | 24.44° C | 31% | 1019.8 hPa | 0 mm | - | 233 W/m² | - |
| 1777324411 | 24.44° C | 30% | 1019.9 hPa | 0 mm | - | 275 W/m² | - |
| 1777324108 | 24.44° C | 31% | 1019.8 hPa | 0 mm | - | 314 W/m² | - |
| 1777323806 | 23.89° C | 31% | 1019.8 hPa | 0 mm | - | 342 W/m² | - |
| 1777323502 | 23.89° C | 31% | 1019.8 hPa | 0 mm | - | 266 W/m² | - |
* Rain latest hour (hover to see other rain measurements)
** Current wind speed in m/s (hover to see current wind gust speed)